Вернуться в каталог

FALCON 9 R/B

АктивенVLEO
NORAD 54698·ROCKET BODY·🇺🇸 United States

Запущен Dec 11, 2022 с Cape Canaveral Space Force Station

Loading…

Ближайшие Пролёты (ближайшие 24 часа)

TLE

УстаревшееSource: Space-Track

Эпоха: Dec 11, 2022, 07:46 UTC

1 54698U 22168C   22345.32368031  .00002049 -64822-5  00000-0 0  9996
2 54698  29.0000  41.2312 0098300  59.8200  27.0300 16.15592824    07

Отслеживайте FALCON 9 R/B в реальном времени с AllMySat

Download on the App Store